"2010-07-23 00:00:00",6061,4.322,175.3,1.236,0.099,22.49,109.8221,24.44,25.31,34.1,0,111.3,13.09,25.27,137.3
"2010-07-23 00:00:30",6062,3.873,170.5,5.335,0.24,22.5,109.8231,24.44,25.31,34.7,0,111.3,13.09,25.28,132.5
"2010-07-23 00:01:00",6063,4.308,175.6,2.563,0.218,22.48,109.8262,24.45,25.31,35.49,0,111.3,13.09,25.29,137.6
"2010-07-23 00:01:30",6064,3.404,167.5,5.198,0.345,22.48,109.8227,24.44,25.31,35.18,0,111.3,13.09,25.28,129.5
"2010-07-23 00:02:00",6065,3.403,168.3,6.446,0.234,22.5,109.8224,24.44,25.3,35,0,111.3,13.09,25.28,130.3
"2010-07-23 00:02:30",6066,3.517,180.9,1.964,0.124,22.47,109.8224,24.44,25.29,35.25,0,111.3,13.09,25.28,142.9
"2010-07-23 00:03:00",6067,3.028,181.8,3.676,0.213,22.49,109.8227,24.44,25.29,35.06,0,111.3,13.09,25.28,143.8
"2010-07-23 00:03:30",6068,2.56,177.7,4.289,0.169,22.5,109.8247,24.44,25.29,35.05,0,111.3,13.09,25.28,139.7
"2010-07-23 00:04:00",6069,2.178,184.5,10.01,0.225,22.48,109.8249,24.44,25.29,35.16,0,111.3,13.09,25.28,146.5
"2010-07-23 00:04:30",6070,1.87,182.9,7.614,0.137,22.49,109.819,24.43,25.29,35.49,0,111.3,13.1,25.27,144.9
"2010-07-23 00:05:00",6071,1.758,196.6,4.668,0.14,22.45,109.8092,24.4,25.29,35.42,0,111.3,13.1,25.24,158.6
"2010-07-23 00:05:30",6072,1.584,197.2,8,0.115,22.44,109.8067,24.4,25.29,35.24,0,111.3,13.1,25.23,159.2
"2010-07-23 00:06:00",6073,1.192,197.1,7.43,0.196,22.47,109.7994,24.38,25.28,35.26,0,111.3,13.1,25.22,159.1
"2010-07-23 00:06:30",6074,1.112,193.5,6.535,0.219,22.48,109.798,24.38,25.27,35.46,0,111.3,13.1,25.21,155.5
"2010-07-23 00:07:00",6075,0.657,189.1,7.401,0.156,22.46,109.798,24.38,25.27,35.63,0,111.3,13.1,25.21,151.1
"2010-07-23 00:07:30",6076,0.596,205.9,5.952,0.062,22.46,109.798,24.38,25.27,34.91,0,111.3,13.1,25.21,167.9
"2010-07-23 00:08:00",6077,0.399,218.1,6.146,0.095,22.47,109.798,24.38,25.26,35.08,0,111.2,13.1,25.21,180.1
"2010-07-23 00:08:30",6078,0.202,240.6,8.61,0.046,22.47,109.7977,24.37,25.27,35.31,0,111.2,13.1,25.21,202.6
"2010-07-23 00:09:00",6079,0.076,227.4,14.7,0.125,22.44,109.798,24.38,25.26,35.41,0,111.2,13.1,25.21,189.4
"2010-07-23 00:09:30",6080,0.209,258.1,20.22,0.07,22.45,109.7958,24.37,25.25,35.43,0,111.2,13.1,25.21,220.1
"2010-07-23 00:10:00",6081,0.294,268.5,14.3,0.053,22.44,109.7977,24.37,25.25,35.17,0,111.2,13.1,25.21,230.5
"2010-07-23 00:10:30",6082,0.377,281.3,5.343,0.077,22.43,109.7967,24.37,25.25,35.48,0,111.2,13.1,25.21,243.3
"2010-07-23 00:11:00",6083,0.64,286.7,6.38,0.136,22.46,109.8009,24.38,25.26,35.55,0,111.2,13.11,25.22,248.7
"2010-07-23 00:11:30",6084,0.727,285.9,5.88,0.057,22.45,109.8027,24.39,25.25,35.5,0,111.2,13.1,25.22,247.9
"2010-07-23 00:12:00",6085,0.624,277,4.449,0.073,22.47,109.8033,24.39,25.26,35.59,0,111.2,13.11,25.23,239.0
"2010-07-23 00:12:30",6086,0.681,283.5,4.18,0.067,22.46,109.8025,24.39,25.25,35.56,0,111.2,13.11,25.22,245.5
"2010-07-23 00:13:00",6087,0.703,296.9,5.816,0.062,22.5,109.7991,24.38,25.25,35.55,0,111.2,13.11,25.22,258.9
"2010-07-23 00:13:30",6088,0.765,301.3,6.817,0.079,22.51,109.7997,24.38,25.25,35.36,0,111.2,13.11,25.22,263.3
"2010-07-23 00:14:00",6089,0.631,296.3,7.733,0.079,22.48,109.8032,24.39,25.26,35.4,0,111.2,13.11,25.23,258.3
"2010-07-23 00:14:30",6090,0.648,295.2,6.209,0.067,22.46,109.8024,24.39,25.24,35.46,0,111.2,13.11,25.22,257.2
"2010-07-23 00:15:00",6091,0.507,294.4,3.84,0.045,22.56,109.8028,24.39,25.25,35.49,0,111.2,13.11,25.22,256.4
"2010-07-23 00:15:30",6092,0.683,298,6.173,0.126,22.51,109.8023,24.39,25.25,35.5,0,111.2,13.11,25.22,260.0
"2010-07-23 00:16:00",6093,0.623,303.7,8.81,0.142,22.48,109.8032,24.39,25.26,35.53,0,111.2,13.1,25.23,265.7
"2010-07-23 00:16:30",6094,0.654,308.1,3.212,0.055,22.5,109.8066,24.4,25.26,35.43,0,111.2,13.1,25.23,270.1
"2010-07-23 00:17:00",6095,0.607,303.9,4.575,0.049,22.51,109.8091,24.4,25.26,35.44,0,111.2,13.1,25.24,265.9
"2010-07-23 00:17:30",6096,0.618,303,2.344,0.114,22.56,109.8088,24.4,25.26,35.51,0,111.2,13.1,25.24,265.0
"2010-07-23 00:18:00",6097,0.509,299.7,14.35,0.268,22.54,109.8066,24.4,25.26,35.54,0,111.2,13.1,25.23,261.7
"2010-07-23 00:18:30",6098,0.421,279.7,8.09,0.058,22.51,109.8072,24.4,25.25,35.68,0,111.2,13.1,25.24,241.7
"2010-07-23 00:19:00",6099,0.562,293.9,6.066,0.123,22.51,109.8041,24.39,25.27,35.56,0,111.2,13.1,25.23,255.9
"2010-07-23 00:19:30",6100,0.889,300.2,3.657,0.089,22.52,109.8044,24.39,25.26,35.64,0,111.2,13.11,25.23,262.2
"2010-07-23 00:20:00",6101,0.909,300.5,3.316,0.095,22.54,109.803,24.39,25.25,35.72,0,111.2,13.11,25.23,262.5
"2010-07-23 00:20:30",6102,0.967,291.2,3.525,0.086,22.59,109.8021,24.39,25.26,35.74,0,111.2,13.11,25.22,253.2
"2010-07-23 00:21:00",6103,1.158,287.9,1.913,0.073,22.57,109.8021,24.39,25.26,35.77,0,111.2,13.11,25.22,249.9
"2010-07-23 00:21:30",6104,1.241,288.5,4.961,0.048,22.55,109.8024,24.39,25.27,35.82,0,111.2,13.11,25.22,250.5
"2010-07-23 00:22:00",6105,1.273,280.5,3.088,0.095,22.53,109.8013,24.38,25.26,35.96,0,111.2,13.11,25.22,242.5
"2010-07-23 00:22:30",6106,1.496,273.2,3.835,0.094,22.55,109.8013,24.38,25.26,36.08,0,111.2,13.12,25.22,235.2
"2010-07-23 00:23:00",6107,1.554,268.9,1.493,0.079,22.63,109.8025,24.39,25.27,36.18,0,111.2,13.12,25.22,230.9
"2010-07-23 00:23:30",6108,1.702,262.5,1.483,0.058,22.62,109.8028,24.39,25.29,36.18,0,111.2,13.12,25.22,224.5
"2010-07-23 00:24:00",6109,1.812,269.7,4.354,0.113,22.68,109.8044,24.39,25.26,35.72,0,111.2,13.12,25.23,231.7
"2010-07-23 00:24:30",6110,2.154,267.3,2.023,0.111,20.12,109.8037,24.39,25.25,34.03,0,111.2,13.12,25.23,229.3
"2010-07-23 00:25:00",6111,2.378,266.7,2.196,0.106,22.87,109.8074,24.4,25.27,34.52,0,111.2,13.12,25.24,228.7
"2010-07-23 00:25:30",6112,2.423,264.5,1.592,0.126,22.77,109.8126,24.41,25.27,34.11,0,111.2,13.12,25.25,226.5
"2010-07-23 00:26:00",6113,2.406,264.2,2.548,0.128,23,109.8215,24.44,25.29,34.24,0,111.2,13.12,25.27,226.2
"2010-07-23 00:26:30",6114,2.58,254.9,2.596,0.091,23.16,109.8294,24.46,25.29,34.96,0,111.2,13.12,25.29,216.9
"2010-07-23 00:27:00",6115,2.597,255.5,2.52,0.074,22.81,109.8331,24.47,25.3,34.3,0,111.2,13.12,25.30,217.5
"2010-07-23 00:27:30",6116,2.734,259.2,1.722,0.107,23.12,109.8399,24.48,25.31,33.13,0,111.2,13.12,25.32,221.2
"2010-07-23 00:28:00",6117,2.646,259.3,1.407,0.114,22.96,109.8523,24.51,25.31,33.06,0,111.2,13.12,25.35,221.3
"2010-07-23 00:28:30",6118,2.646,261.5,1.946,0.086,23.09,109.8571,24.53,25.33,33.08,0,111.1,13.12,25.36,223.5
"2010-07-23 00:29:00",6119,2.765,268.1,6.384,0.293,23.12,109.8515,24.51,25.33,34.45,0,111.1,13.12,25.35,230.1
"2010-07-23 00:29:30",6120,2.869,265,7.785,0.159,23.28,109.833,24.47,25.32,35.02,0,111.1,13.12,25.30,227.0
"2010-07-23 00:30:00",6121,2.555,271.7,6.076,0.24,22.98,109.8271,24.45,25.32,36.24,0,111.1,13.12,25.29,233.7
"2010-07-23 00:30:30",6122,3.094,270.7,1.737,0.121,17.91,109.8143,24.42,25.3,34.76,0,111.1,13.12,25.25,232.7
"2010-07-23 00:31:00",6123,3.558,263.4,2.738,0.188,23.21,109.8055,24.39,25.28,34.91,0,111.1,13.12,25.23,225.4
"2010-07-23 00:31:30",6124,3.469,269.2,7.434,0.292,23.54,109.8042,24.39,25.26,36.31,0,111.1,13.12,25.23,231.2
"2010-07-23 00:32:00",6125,3.882,276.4,6.43,0.241,20.94,109.7866,24.35,25.24,38.85,0,111.1,13.12,25.18,238.4
"2010-07-23 00:32:30",6126,4.044,277,9.29,0.311,20.95,109.7613,24.28,25.2,38.9,0,111.1,13.12,25.12,239.0
"2010-07-23 00:33:00",6127,3.872,262.3,4.719,0.227,20.76,109.7462,24.24,25.18,37.18,0,111.1,13.12,25.08,224.3
"2010-07-23 00:33:30",6128,5.198,275.7,3.746,0.655,13.51,109.7394,24.23,25.16,38.91,0,111.1,13.12,25.06,237.7
"2010-07-23 00:34:00",6129,4.715,274.8,5.601,0.53,15.88,109.7181,24.17,25.13,39.13,0,111.1,13.12,25.01,236.8
"2010-07-23 00:34:30",6130,4.356,281.2,8.16,0.675,-5.442,109.6838,24.08,25.08,40.25,0,111.1,13.12,24.92,243.2
"2010-07-23 00:35:00",6131,5.628,274,4.084,0.217,-47.01,109.6333,23.95,25.02,40.58,0,111.1,13.11,24.79,236.0
"2010-07-23 00:35:30",6132,6.74,290.1,3.606,0.425,-26.76,109.5814,23.82,24.94,41.42,0,111.1,13.12,24.65,252.1
"2010-07-23 00:36:00",6133,6.356,291.7,7.166,0.578,-9.21,109.5148,23.65,24.84,41.98,0,111.1,13.11,24.48,253.7
"2010-07-23 00:36:30",6134,7.663,299.6,6.685,0.461,23,109.436,23.45,24.72,42.61,0,111.1,13.12,24.28,261.6
"2010-07-23 00:37:00",6135,5.775,300.6,4.641,0.486,25.67,109.3821,23.31,24.57,41.5,0,111.1,13.12,24.14,262.6
"2010-07-23 00:37:30",6136,4.695,306.4,3.325,0.403,24,109.3336,23.18,24.45,40.88,0,111.1,13.12,24.02,268.4
"2010-07-23 00:38:00",6137,4.649,303.6,3.91,0.212,3.1,109.276,23.03,24.32,40.73,0,111.1,13.12,23.87,265.6
"2010-07-23 00:38:30",6138,4.017,291.7,5.554,0.205,5.87,109.2436,22.95,24.19,41.02,0,111.1,13.12,23.78,253.7
"2010-07-23 00:39:00",6139,3.341,290.2,6.638,0.316,23.43,109.22,22.89,24.09,42.27,0,111.1,13.13,23.72,252.2
"2010-07-23 00:39:30",6140,3.811,297.8,5.551,0.425,16.82,109.1976,22.83,23.99,42.02,0,111.1,13.14,23.67,259.8
"2010-07-23 00:40:00",6141,4.87,307.7,12.31,0.468,17.84,109.1714,22.77,23.93,45.38,0,111.1,13.14,23.60,269.7
"2010-07-23 00:40:30",6142,5.643,295.6,3.845,0.649,25.37,109.1141,22.62,23.83,46.97,0,111.1,13.14,23.45,257.6
"2010-07-23 00:41:00",6143,4.005,292.9,2.745,0.444,21.59,109.0282,22.4,23.65,48.64,0,111.1,13.14,23.23,254.9
"2010-07-23 00:41:30",6144,2.482,295.5,20.16,0.639,24.12,108.9789,22.27,23.53,47.31,0,111.1,13.14,23.10,257.5
"2010-07-23 00:42:00",6145,3.217,261.3,7.381,0.486,24.14,108.945,22.18,23.42,49.83,0,111,13.15,23.01,223.3
"2010-07-23 00:42:30",6146,3.21,253.7,11.42,0.305,24.57,108.8996,22.07,23.31,48.67,0,111,13.15,22.90,215.7
"2010-07-23 00:43:00",6147,1.678,265.8,33.85,0.663,17.2,108.8653,21.98,23.22,48.32,0,111,13.15,22.81,227.8
"2010-07-23 00:43:30",6148,0.569,279.9,21.2,0.346,23.2,108.8382,21.91,23.1,49.46,0,111,13.15,22.74,241.9
"2010-07-23 00:44:00",6149,0.942,281.7,17.74,0.247,26.34,108.8066,21.83,23.02,49.05,0,111,13.15,22.66,243.7
"2010-07-23 00:44:30",6150,1.537,336.4,17.51,0.263,23.07,108.7851,21.77,22.93,49.64,0,111,13.15,22.60,298.4
"2010-07-23 00:45:00",6151,0.903,352.5,12.14,0.663,25.32,108.7716,21.74,22.88,48.67,0,111,13.15,22.57,314.5
"2010-07-23 00:45:30",6152,0.2,317.4,10.52,0.137,25.21,108.7551,21.7,22.82,48.42,0,111,13.16,22.53,279.4
"2010-07-23 00:46:00",6153,0.579,313.2,11.18,0.188,24.62,108.7605,21.71,22.78,47.22,0,111,13.16,22.54,275.2
"2010-07-23 00:46:30",6154,1.047,325.5,12.66,0.145,24.69,108.7872,21.78,22.75,47.83,0,111,13.16,22.61,287.5
"2010-07-23 00:47:00",6155,0.81,327.7,17.34,0.279,24.81,108.8092,21.84,22.76,47.87,0,111,13.16,22.66,289.7
"2010-07-23 00:47:30",6156,0.505,341.6,34.18,0.301,24.22,108.8214,21.87,22.77,48.45,0,111,13.16,22.70,303.6
"2010-07-23 00:48:00",6157,0.436,338.5,43.88,0.309,24.44,108.8026,21.82,22.75,47.81,0,111,13.16,22.65,300.5
"2010-07-23 00:48:30",6158,0.873,344.4,26.82,0.425,25.04,108.7887,21.78,22.72,47.73,0,111,13.16,22.61,306.4
"2010-07-23 00:49:00",6159,1.99,334.3,11.65,0.557,24.1,108.7785,21.76,22.69,47.78,0,110.9,13.16,22.59,296.3
"2010-07-23 00:49:30",6160,1.857,344,10.86,0.44,24.12,108.7986,21.81,22.69,47.78,0,110.9,13.16,22.64,306.0
"2010-07-23 00:50:00",6161,0.837,18.02,22.62,0.461,23.99,108.8027,21.82,22.69,48.47,0,110.9,13.16,22.65,340.0
"2010-07-23 00:50:30",6162,0.23,34.4,53.06,0.32,24.05,108.7909,21.79,22.67,47.97,0,110.9,13.16,22.62,356.4
"2010-07-23 00:51:00",6163,0.686,186.3,23.22,0.53,23.78,108.7959,21.8,22.67,47.41,0,110.9,13.16,22.63,148.3
"2010-07-23 00:51:30",6164,1.009,191.7,13,0.28,23.57,108.8027,21.82,22.67,47.64,0,110.9,13.16,22.65,153.7
"2010-07-23 00:52:00",6165,0.756,202.7,10.9,0.179,23.67,108.8027,21.82,22.67,47.55,0,110.9,13.16,22.65,164.7
"2010-07-23 00:52:30",6166,0.961,217.8,14.22,0.285,23.06,108.8043,21.82,22.66,47.55,0,110.9,13.16,22.65,179.8
"2010-07-23 00:53:00",6167,0.728,214.6,15.24,0.448,22.79,108.8025,21.82,22.68,47.56,0,110.9,13.16,22.65,176.6
"2010-07-23 00:53:30",6168,2.124,185.4,7.117,0.388,22.63,108.7877,21.78,22.67,48.13,0,110.9,13.16,22.61,147.4
"2010-07-23 00:54:00",6169,2.179,180.2,8.9,0.309,22.54,108.7848,21.77,22.64,48.6,0,110.9,13.16,22.60,142.2
"2010-07-23 00:54:30",6170,1.886,172.9,5.709,0.304,22.81,108.7669,21.73,22.63,48.88,0,110.9,13.16,22.56,134.9
"2010-07-23 00:55:00",6171,1.935,174.9,5.844,0.334,22.16,108.7577,21.7,22.61,49.06,0,110.9,13.16,22.53,136.9
"2010-07-23 00:55:30",6172,2.661,149.9,11.04,0.491,21.75,108.7314,21.64,22.57,49.86,0,110.9,13.17,22.46,111.9
"2010-07-23 00:56:00",6173,2.807,141,3.315,0.237,21.66,108.7081,21.58,22.54,50.44,0,110.9,13.17,22.40,103.0
"2010-07-23 00:56:30",6174,2.943,144.1,4.561,0.27,21.54,108.6844,21.52,22.48,51.15,0,110.9,13.18,22.34,106.1
"2010-07-23 00:57:00",6175,2.787,142.8,3.381,0.312,5.593,108.6482,21.42,22.42,51.84,0,110.9,13.18,22.25,104.8
"2010-07-23 00:57:30",6176,3.549,150.5,4.726,0.373,14.14,108.6035,21.31,22.32,53.85,0,110.9,13.18,22.13,112.5
"2010-07-23 00:58:00",6177,3.62,145.1,3.177,0.332,21.79,108.5563,21.19,22.24,54.95,0,110.8,13.18,22.01,107.1
"2010-07-23 00:58:30",6178,3.085,145.4,2.604,0.172,21.56,108.5197,21.09,22.17,53.8,0,110.8,13.18,21.92,107.4
"2010-07-23 00:59:00",6179,3.469,150,2.246,0.291,21.49,108.502,21.05,22.1,53.57,0,110.8,13.18,21.87,112.0
"2010-07-23 00:59:30",6180,4.173,151.5,1.698,0.338,21.44,108.4944,21.03,22.07,54.18,0,110.8,13.18,21.85,113.5
"2010-07-23 01:00:00",6181,3.565,153.7,3.482,0.166,21.59,108.4922,21.02,22.02,53.13,0,110.8,13.18,21.85,115.7
"2010-07-23 01:00:30",6182,3.241,154.6,4.894,0.337,21.57,108.5066,21.06,22.03,52.42,0,110.8,13.18,21.89,116.6
"2010-07-23 01:01:00",6183,3.391,159.5,1.344,0.41,21.26,108.5254,21.11,22.04,52.38,0,110.8,13.18,21.93,121.5
"2010-07-23 01:01:30",6184,4.387,161,2.747,0.324,20.93,108.5391,21.14,22.07,54.53,0,110.8,13.18,21.97,123.0
"2010-07-23 01:02:00",6185,3.978,165.6,2.237,0.282,20.92,108.5229,21.1,22.07,54.53,0,110.8,13.18,21.93,127.6
"2010-07-23 01:02:30",6186,3.82,162,2.069,0.371,21.07,108.5209,21.1,22.03,53.81,0,110.8,13.19,21.92,124.0
"2010-07-23 01:03:00",6187,4.445,164.8,4.982,0.289,20.95,108.5261,21.11,22.03,54,0,110.8,13.19,21.94,126.8
"2010-07-23 01:03:30",6188,5.809,163,3.598,0.26,20.83,108.5283,21.12,22.02,54.9,0,110.8,13.19,21.94,125.0
"2010-07-23 01:04:00",6189,5.684,166.4,2.895,0.172,20.85,108.5202,21.09,21.99,54.89,0,110.8,13.19,21.92,128.4
"2010-07-23 01:04:30",6190,6.228,166.7,1.506,0.204,20.61,108.4986,21.04,21.97,55.18,0,110.8,13.18,21.86,128.7
"2010-07-23 01:05:00",6191,6.395,167.1,1.456,0.293,20.88,108.4848,21,21.94,55.6,0,110.8,13.19,21.83,129.1
"2010-07-23 01:05:30",6192,6.721,168.4,3.5,0.222,19.39,108.4606,20.94,21.91,56.38,0,110.8,13.19,21.77,130.4
"2010-07-23 01:06:00",6193,6.747,172.7,2.567,0.422,19.42,108.432,20.87,21.85,56.43,0,110.8,13.19,21.69,134.7
"2010-07-23 01:06:30",6194,7.129,176.9,3.064,0.287,12.11,108.4143,20.82,21.81,57.09,0,110.8,13.19,21.65,138.9
"2010-07-23 01:07:00",6195,6.886,178.7,3.541,0.262,9.66,108.3949,20.77,21.75,57.26,0,110.8,13.19,21.60,140.7
"2010-07-23 01:07:30",6196,7.023,182.5,2.581,0.247,4.521,108.3926,20.77,21.73,55.38,0,110.8,13.19,21.59,144.5
"2010-07-23 01:08:00",6197,7.517,181.4,1.639,0.42,9.05,108.3951,20.77,21.71,54.95,0,110.8,13.19,21.60,143.4
"2010-07-23 01:08:30",6198,8.74,178.4,2.597,0.413,18.94,108.4051,20.8,21.72,54.57,0,110.8,13.18,21.62,140.4
"2010-07-23 01:09:00",6199,8.9,175.2,3.04,0.267,21.5,108.4123,20.82,21.74,54.48,0,110.8,13.18,21.64,137.2
"2010-07-23 01:09:30",6200,8.97,175.5,0.951,0.247,18.49,108.4264,20.85,21.75,54.83,0,110.8,13.18,21.68,137.5
"2010-07-23 01:10:00",6201,9.43,173.8,1.026,0.328,19.02,108.428,20.86,21.73,55.09,0,110.8,13.18,21.68,135.8
"2010-07-23 01:10:30",6202,9.54,173.9,1.729,0.26,18.5,108.4288,20.86,21.74,55.91,0,110.8,13.18,21.68,135.9
"2010-07-23 01:11:00",6203,9.77,172.7,2.047,0.241,1.049,108.4282,20.86,21.73,55.79,0,110.8,13.18,21.68,134.7
"2010-07-23 01:11:30",6204,10.43,173.8,1.313,0.216,-6.463,108.4283,20.86,21.75,56.27,0,110.8,13.18,21.68,135.8
"2010-07-23 01:12:00",6205,10.16,170.3,1.124,0.222,4.83,108.4192,20.84,21.74,56.42,0,110.8,13.17,21.66,132.3
"2010-07-23 01:12:30",6206,10.32,171.8,1.597,0.201,10.2,108.4054,20.8,21.73,57,0,110.8,13.18,21.62,133.8
"2010-07-23 01:13:00",6207,10.32,174.8,1.045,0.183,7.103,108.395,20.77,21.72,57.11,0,110.8,13.18,21.60,136.8
"2010-07-23 01:13:30",6208,10.81,176.5,1.261,0.368,6.758,108.3936,20.77,21.72,56.99,0,110.8,13.18,21.59,138.5
"2010-07-23 01:14:00",6209,10.97,175.6,0.789,0.297,17.36,108.3927,20.77,21.7,55.93,0,110.8,13.19,21.59,137.6
"2010-07-23 01:14:30",6210,11.41,169.9,1.527,0.279,19.27,108.3914,20.76,21.69,55.23,0,110.8,13.19,21.59,131.9
"2010-07-23 01:15:00",6211,11.11,169.2,2.036,0.216,21.4,108.3962,20.78,21.71,55.41,0,110.8,13.19,21.60,131.2
"2010-07-23 01:15:30",6212,10.73,167.9,1.534,0.311,20.49,108.3984,20.78,21.7,55.79,0,110.8,13.19,21.61,129.9
"2010-07-23 01:16:00",6213,10.69,167.3,1.267,0.272,20.24,108.3947,20.77,21.7,54.98,0,110.8,13.19,21.60,129.3
"2010-07-23 01:16:30",6214,11.4,169.1,1.11,0.325,20.22,108.3969,20.78,21.7,54.15,0,110.8,13.19,21.60,131.1
"2010-07-23 01:17:00",6215,11.4,171.2,0.892,0.377,20.09,108.3991,20.78,21.69,55.93,0,110.8,13.19,21.61,133.2
"2010-07-23 01:17:30",6216,11.47,170.1,2.001,0.363,20.15,108.3922,20.77,21.72,56.09,0,110.8,13.19,21.59,132.1
"2010-07-23 01:18:00",6217,12.04,172.8,1.876,0.385,20.21,108.3942,20.77,21.72,55.02,0,110.8,13.19,21.60,134.8
"2010-07-23 01:18:30",6218,12.8,172.6,1.151,0.648,20.3,108.3999,20.79,21.71,54.72,0,110.8,13.19,21.61,134.6
"2010-07-23 01:19:00",6219,13.04,171.7,1.555,0.251,20.23,108.4089,20.81,21.72,53.88,0,110.8,13.19,21.63,133.7
"2010-07-23 01:19:30",6220,13.16,171.5,1.88,0.34,20.1,108.4094,20.81,21.73,54.31,0,110.8,13.19,21.63,133.5
"2010-07-23 01:20:00",6221,12.19,172,1.504,0.522,20.22,108.4093,20.81,21.74,54.06,0,110.8,13.19,21.63,134.0
"2010-07-23 01:20:30",6222,12.06,173,1.299,0.48,20.05,108.4075,20.81,21.74,54.67,0,110.8,13.19,21.63,135.0
"2010-07-23 01:21:00",6223,12.96,171.3,1.796,0.286,20.23,108.4057,20.8,21.75,54.96,0,110.8,13.19,21.63,133.3
"2010-07-23 01:21:30",6224,13.06,170,2.175,0.404,20.2,108.4035,20.8,21.77,55,0,110.8,13.19,21.62,132.0
"2010-07-23 01:22:00",6225,13.13,171.4,1.12,0.348,20.28,108.4042,20.8,21.77,54.73,0,110.8,13.19,21.62,133.4
"2010-07-23 01:22:30",6226,13.64,169.6,1.385,0.406,20.33,108.406,20.8,21.77,53.88,0,110.8,13.19,21.63,131.6
"2010-07-23 01:23:00",6227,13.53,169.4,1.199,0.481,20.49,108.4057,20.8,21.77,53.28,0,110.8,13.19,21.63,131.4
"2010-07-23 01:23:30",6228,14.23,169.6,0.688,0.418,20.25,108.4035,20.8,21.76,53.27,0,110.8,13.19,21.62,131.6
"2010-07-23 01:24:00",6229,13.54,169,0.542,0.231,20.47,108.4035,20.79,21.77,52.1,0,110.9,13.19,21.62,131.0
"2010-07-23 01:24:30",6230,13.61,169.6,0.419,0.202,20.58,108.4057,20.8,21.76,51.47,0,110.9,13.18,21.63,131.6
"2010-07-23 01:25:00",6231,13.5,171.3,0.914,0.434,20.4,108.4073,20.8,21.77,51.74,0,110.9,13.18,21.63,133.3
"2010-07-23 01:25:30",6232,13.55,172.4,0.802,0.441,20.31,108.4132,20.82,21.78,51.79,0,110.9,13.18,21.64,134.4
"2010-07-23 01:26:00",6233,13.04,173.5,1.199,0.516,20.4,108.4235,20.85,21.78,51.86,0,110.9,13.17,21.67,135.5
"2010-07-23 01:26:30",6234,12.31,172.9,1.27,0.229,20.55,108.437,20.88,21.79,51.83,0,110.9,13.18,21.71,134.9
"2010-07-23 01:27:00",6235,12.73,170.8,1.023,0.224,20.56,108.4379,20.88,21.81,51.26,0,110.9,13.17,21.71,132.8
"2010-07-23 01:27:30",6236,12.77,170.6,1.167,0.448,20.62,108.4388,20.89,21.83,51.06,0,110.9,13.17,21.71,132.6
"2010-07-23 01:28:00",6237,13.67,173.9,1.14,0.367,20.09,108.4464,20.91,21.85,51.54,0,110.9,13.17,21.73,135.9
"2010-07-23 01:28:30",6238,12.91,172.7,1.423,0.379,20.43,108.4618,20.94,21.85,51.56,0,110.9,13.17,21.77,134.7
"2010-07-23 01:29:00",6239,12.72,170.9,1.414,0.465,20.6,108.4717,20.97,21.86,51.27,0,110.9,13.17,21.80,132.9
"2010-07-23 01:29:30",6240,12.57,169.9,2.432,0.242,20.78,108.4704,20.97,21.89,50.04,0,110.9,13.18,21.79,131.9
"2010-07-23 01:30:00",6241,12.08,170,1.398,0.549,20.83,108.4772,20.98,21.9,49.72,0,110.9,13.18,21.81,132.0
"2010-07-23 01:30:30",6242,12.96,170.5,1.201,0.338,20.81,108.5005,21.04,21.93,49.9,0,110.9,13.19,21.87,132.5
"2010-07-23 01:31:00",6243,12.78,172.7,1.213,0.244,20.78,108.5063,21.06,21.96,50.08,0,110.9,13.19,21.88,134.7
"2010-07-23 01:31:30",6244,12.93,173.1,0.926,0.469,20.7,108.5077,21.06,21.99,50.21,0,110.9,13.19,21.89,135.1
"2010-07-23 01:32:00",6245,14.25,171.5,1.722,0.386,20.71,108.5249,21.11,21.98,49.29,0,110.9,13.19,21.93,133.5
"2010-07-23 01:32:30",6246,14.25,173.6,1.478,0.608,20.74,108.5406,21.15,22.01,48.94,0,110.9,13.19,21.97,135.6
"2010-07-23 01:33:00",6247,14.46,174.2,0.795,0.787,20.65,108.5433,21.15,22.04,48.89,0,110.9,13.19,21.98,136.2
"2010-07-23 01:33:30",6248,15.05,176.1,1.647,0.636,20.64,108.5665,21.21,22.08,49.13,0,110.9,13.19,22.04,138.1
"2010-07-23 01:34:00",6249,13.73,172.4,1.079,0.52,20.59,108.5747,21.23,22.09,48.82,0,110.9,13.19,22.06,134.4
"2010-07-23 01:34:30",6250,14.86,173.1,1.526,0.551,20.77,108.5834,21.26,22.13,49.07,0,110.9,13.19,22.08,135.1
"2010-07-23 01:35:00",6251,14.32,172,0.883,0.328,20.65,108.6069,21.32,22.15,48.85,0,110.9,13.19,22.14,134.0
"2010-07-23 01:35:30",6252,13.97,173.3,1.385,0.489,20.77,108.609,21.32,22.18,47.59,0,110.9,13.19,22.15,135.3
"2010-07-23 01:36:00",6253,14.28,174.9,0.637,0.284,20.89,108.6243,21.36,22.2,46.59,0,110.9,13.19,22.19,136.9
"2010-07-23 01:36:30",6254,14.16,174.6,0.647,0.437,20.83,108.6406,21.4,22.24,46.2,0,110.9,13.19,22.23,136.6
"2010-07-23 01:37:00",6255,14.62,174,1.369,0.482,20.67,108.6417,21.41,22.27,47.66,0,110.9,13.19,22.23,136.0
"2010-07-23 01:37:30",6256,15.17,171.2,1.027,0.214,20.99,108.6597,21.45,22.29,45.94,0,110.9,13.19,22.28,133.2
"2010-07-23 01:38:00",6257,14.74,172.4,0.701,0.181,20.97,108.6741,21.49,22.34,45.58,0,110.9,13.19,22.32,134.4
"2010-07-23 01:38:30",6258,14.27,171.4,1.019,0.256,20.97,108.6777,21.5,22.35,45.39,0,110.9,13.19,22.33,133.4
"2010-07-23 01:39:00",6259,13.87,173.7,0.99,0.255,20.98,108.699,21.55,22.4,45.17,0,110.9,13.19,22.38,135.7
"2010-07-23 01:39:30",6260,13.77,173.3,1.037,0.241,21.03,108.7081,21.58,22.41,45.12,0,110.9,13.19,22.40,135.3
"2010-07-23 01:40:00",6261,13.69,171.6,1.098,0.431,20.95,108.7113,21.59,22.44,44.83,0,110.9,13.19,22.41,133.6
"2010-07-23 01:40:30",6262,13.16,171.9,1.077,0.332,21,108.7392,21.66,22.49,44.28,0,110.9,13.19,22.48,133.9
"2010-07-23 01:41:00",6263,13.14,174.2,0.866,0.323,20.48,108.7415,21.66,22.52,47.22,0,110.9,13.19,22.49,136.2
"2010-07-23 01:41:30",6264,13.4,173.6,2.132,0.286,20.18,108.7457,21.67,22.54,50.36,0,110.9,13.18,22.50,135.6
"2010-07-23 01:42:00",6265,13.11,176.3,1.719,0.271,20.1,108.7495,21.68,22.57,50.31,0,110.9,13.18,22.51,138.3
"2010-07-23 01:42:30",6266,13.18,176.9,1.237,0.244,20.28,108.7503,21.69,22.59,50.62,0,110.9,13.18,22.51,138.9
"2010-07-23 01:43:00",6267,12.98,176,0.874,0.315,20.36,108.7501,21.68,22.59,50.46,0,110.9,13.18,22.51,138.0
"2010-07-23 01:43:30",6268,13.37,176.9,0.66,0.205,20.31,108.7495,21.68,22.6,49.92,0,110.9,13.18,22.51,138.9
"2010-07-23 01:44:00",6269,13.07,176.7,1.905,0.504,20.22,108.7421,21.66,22.61,50.8,0,110.9,13.18,22.49,138.7
"2010-07-23 01:44:30",6270,13,176,1.324,0.274,20.13,108.7385,21.65,22.63,51.81,0,110.9,13.17,22.48,138.0
"2010-07-23 01:45:00",6271,13.17,177.3,0.786,0.208,20.41,108.7385,21.65,22.6,49.75,0,110.9,13.18,22.48,139.3
"2010-07-23 01:45:30",6272,13.14,176.9,0.781,0.202,20.51,108.7323,21.64,22.58,49.07,0,110.9,13.18,22.47,138.9
"2010-07-23 01:46:00",6273,13.04,176.6,0.668,0.196,20.54,108.7135,21.59,22.57,48.83,0,110.9,13.18,22.42,138.6
"2010-07-23 01:46:30",6274,12.99,177.7,0.512,0.187,20.48,108.7051,21.57,22.56,48.48,0,110.9,13.18,22.40,139.7
"2010-07-23 01:47:00",6275,12.99,177.9,0.725,0.179,20.29,108.7051,21.57,22.54,49.54,0,110.9,13.19,22.40,139.9
"2010-07-23 01:47:30",6276,13.16,177.5,0.986,0.257,20.14,108.7034,21.56,22.52,50.81,0,110.9,13.19,22.39,139.5
"2010-07-23 01:48:00",6277,13.48,177.9,1.316,0.382,20.2,108.6798,21.5,22.51,51.14,0,110.9,13.19,22.33,139.9
"2010-07-23 01:48:30",6278,13.35,180.2,0.835,0.237,20.22,108.6708,21.48,22.49,50.93,0,110.9,13.19,22.31,142.2
"2010-07-23 01:49:00",6279,13.42,178.8,1.114,0.266,20.29,108.6432,21.41,22.44,50.31,0,110.9,13.19,22.24,140.8
"2010-07-23 01:49:30",6280,12.84,177.3,1.276,0.295,20.37,108.637,21.39,22.42,50.45,0,110.9,13.19,22.22,139.3